Atka, AK

3:57 PM HDT on October 23, 2017 (GMT -0900)
Atka

Weather History for PAAK - January, 2013

Change the Weather History Date:

Sunday, January 20, 2013

  Actual Average (PADK) Record (PADK)
Temperature  
Mean Temperature 32 °F -  
Max Temperature 33 °F 34 °F 45 °F (1963)
Min Temperature 30 °F 24 °F -7 °F (1999)
Degree Days  
Heating Degree Days 34    
Moisture  
Dew Point -16 °F    
Average Humidity 13    
Maximum Humidity 13    
Minimum Humidity 11    
Precipitation  
Precipitation 0.00 in - - ()
Sea Level Pressure  
Sea Level Pressure 29.10 in    
Wind  
Wind Speed 16 mph (WNW)    
Max Wind Speed 28 mph    
Max Gust Speed 33 mph    
Visibility 9 miles    
Events      
Averages and records for this station are not official NWS values.
T = Trace of Precipitation, MM = Missing Value Source: NWS Daily Summary

Daily Weather History Graph

Daily Weather History Graph

Search for Another Location

Airport or City:

Trip Planner

Search our weather history database for the weather conditions in past years. The results will help you decide how hot, cold, wet, or windy it might be!

Date:

Astronomy

Jan. 20, 2013 Rise Set
Actual Time 9:33 AM HST 6:03 PM HST
Civil Twilight 8:54 AM HST 6:41 PM HST
Nautical Twilight 8:12 AM HST 7:23 PM HST
Astronomical Twilight 7:32 AM HST 8:04 PM HST
Moon 1:14 PM HST (1/20) 4:16 AM HST (1/20)
Length of Visible Light 9h 47m
Length of Day
8h 30m
Waxing Gibbous, 68% of the Moon is Illuminated
Jan 20
Waxing Gibbous
Jan 26
Full
Feb 3
Last Quarter
Feb 9
New
Feb 17
First Quarter

Hourly Weather History & Observations

Time (HST) Temp. Windchill Dew Point Humidity Pressure Visibility Wind Dir Wind Speed Gust Speed Precip Events Conditions
12:16 AM 30.2 °F 18.1 °F -16.6 °F 13% 28.95 in 10.0 mi WNW 18.4 mph 24.2 mph N/A   Overcast
12:36 AM 30.2 °F 19.8 °F -16.6 °F 13% 28.95 in 10.0 mi NW 13.8 mph 18.4 mph N/A   Overcast
12:56 AM 30.2 °F 18.1 °F -16.6 °F 13% 28.95 in 10.0 mi WNW 18.4 mph 23.0 mph N/A   Overcast
1:16 AM 30.2 °F 18.1 °F -16.6 °F 13% 28.95 in 10.0 mi NW 18.4 mph 23.0 mph N/A   Overcast
1:36 AM 30.2 °F 18.5 °F -16.6 °F 13% 28.95 in 10.0 mi NW 17.3 mph - N/A   Mostly Cloudy
1:56 AM 30.2 °F 18.5 °F -16.6 °F 13% 28.96 in 10.0 mi NW 17.3 mph 23.0 mph N/A   Scattered Clouds
2:16 AM 30.2 °F 17.8 °F -16.6 °F 13% 28.95 in 10.0 mi WNW 19.6 mph 25.3 mph N/A   Scattered Clouds
2:36 AM 30.2 °F 19.3 °F -16.6 °F 13% 28.96 in 10.0 mi WNW 15.0 mph - N/A   Mostly Cloudy
2:56 AM 32.0 °F 20.8 °F -16.6 °F 12% 28.97 in 10.0 mi WNW 17.3 mph 21.9 mph N/A   Overcast
3:16 AM 32.0 °F 21.6 °F -16.6 °F 12% 28.97 in 10.0 mi NW 15.0 mph 20.7 mph N/A   Overcast
3:36 AM 32.0 °F 21.6 °F -16.6 °F 12% 28.97 in 10.0 mi WNW 15.0 mph 20.7 mph N/A   Overcast
3:56 AM 32.0 °F 21.6 °F -16.6 °F 12% 28.99 in 10.0 mi NW 15.0 mph 19.6 mph N/A   Overcast
4:16 AM 32.0 °F 21.6 °F -16.6 °F 12% 28.99 in 10.0 mi WNW 15.0 mph - N/A   Mostly Cloudy
4:36 AM 30.2 °F 19.8 °F -16.6 °F 13% 28.99 in 6.0 mi WNW 13.8 mph 21.9 mph N/A   Overcast
4:56 AM 30.2 °F 21.9 °F -16.6 °F 13% 29.00 in 10.0 mi WNW 9.2 mph - N/A   Overcast
5:16 AM 30.2 °F 21.9 °F -16.6 °F 13% 29.00 in 5.0 mi WNW 9.2 mph - N/A   Overcast
5:36 AM 30.2 °F 20.8 °F -16.6 °F 13% 29.00 in 10.0 mi NW 11.5 mph - N/A   Overcast
5:56 AM 30.2 °F 20.8 °F -16.6 °F 13% 29.01 in 5.0 mi WNW 11.5 mph 19.6 mph N/A   Mostly Cloudy
6:16 AM 30.2 °F 18.5 °F -16.6 °F 13% 29.01 in 7.0 mi WNW 17.3 mph 20.7 mph N/A   Overcast
6:36 AM 30.2 °F 20.2 °F -16.6 °F 13% 29.01 in 10.0 mi WNW 12.7 mph 19.6 mph N/A   Overcast
6:56 AM 30.2 °F 20.8 °F -16.6 °F 13% 29.03 in 10.0 mi NW 11.5 mph - N/A   Mostly Cloudy
7:16 AM 30.2 °F 21.3 °F -16.6 °F 13% 29.03 in 10.0 mi NW 10.4 mph - N/A   Mostly Cloudy
7:36 AM 30.2 °F 21.3 °F -16.6 °F 13% 29.04 in 10.0 mi NW 10.4 mph - N/A   Overcast
7:56 AM 30.2 °F 20.8 °F -16.6 °F 13% 29.05 in 10.0 mi NW 11.5 mph - N/A   Overcast
8:16 AM 30.2 °F 19.8 °F -16.6 °F 13% 29.05 in 10.0 mi WNW 13.8 mph 18.4 mph N/A   Mostly Cloudy
8:36 AM 30.2 °F 17.8 °F -16.6 °F 13% 29.05 in 10.0 mi WNW 19.6 mph - N/A   Mostly Cloudy
8:56 AM 30.2 °F 18.5 °F -16.6 °F 13% 29.06 in 10.0 mi WNW 17.3 mph - N/A   Mostly Cloudy
9:16 AM 30.2 °F 18.1 °F -16.6 °F 13% 29.06 in 5.0 mi West 18.4 mph 25.3 mph N/A   Mostly Cloudy
9:36 AM 30.2 °F 18.1 °F -16.6 °F 13% 29.07 in 10.0 mi WNW 18.4 mph - N/A   Mostly Cloudy
9:56 AM 30.2 °F 17.8 °F -16.6 °F 13% 29.08 in 10.0 mi WNW 19.6 mph - N/A   Scattered Clouds
10:16 AM 30.2 °F 18.5 °F -16.6 °F 13% 29.09 in 10.0 mi WNW 17.3 mph 20.7 mph N/A   Scattered Clouds
10:36 AM 32.0 °F 21.2 °F -16.6 °F 12% 29.09 in 10.0 mi WNW 16.1 mph - N/A   Mostly Cloudy
10:56 AM 32.0 °F 22.1 °F -16.6 °F 12% 29.10 in 10.0 mi WNW 13.8 mph - N/A   Mostly Cloudy
11:16 AM 32.0 °F 21.6 °F -16.6 °F 12% 29.10 in 10.0 mi NW 15.0 mph - N/A   Overcast
11:36 AM 32.0 °F 22.1 °F -16.6 °F 12% 29.11 in 10.0 mi WNW 13.8 mph - N/A   Overcast
11:56 AM 32.0 °F 20.1 °F -16.6 °F 12% 29.11 in 10.0 mi WNW 19.6 mph 26.5 mph N/A   Overcast
12:16 PM 33.8 °F 23.5 °F -16.6 °F 11% 29.11 in 10.0 mi WNW 16.1 mph 20.7 mph N/A   Mostly Cloudy
12:36 PM 33.8 °F 23.9 °F -14.8 °F 12% 29.11 in 10.0 mi WNW 15.0 mph 25.3 mph N/A   Scattered Clouds
12:56 PM 33.8 °F 22.8 °F -14.8 °F 12% 29.12 in 10.0 mi WNW 18.4 mph 23.0 mph N/A   Mostly Cloudy
1:16 PM 33.8 °F 22.5 °F -14.8 °F 12% 29.12 in 10.0 mi WNW 19.6 mph 26.5 mph N/A   Mostly Cloudy
1:36 PM 33.8 °F 22.2 °F -14.8 °F 12% 29.12 in 10.0 mi WNW 20.7 mph 26.5 mph N/A   Mostly Cloudy
1:56 PM 33.8 °F 23.2 °F -14.8 °F 12% 29.13 in 10.0 mi WNW 17.3 mph 23.0 mph N/A   Mostly Cloudy
2:16 PM 33.8 °F 23.2 °F -14.8 °F 12% 29.13 in 10.0 mi WNW 17.3 mph 24.2 mph N/A   Overcast
2:36 PM 33.8 °F 23.2 °F -14.8 °F 12% 29.13 in 10.0 mi WNW 17.3 mph 23.0 mph N/A   Overcast
2:56 PM 33.8 °F 23.2 °F -14.8 °F 12% 29.13 in 10.0 mi WNW 17.3 mph 23.0 mph N/A   Overcast
3:16 PM 33.8 °F 23.9 °F -14.8 °F 12% 29.13 in 10.0 mi WNW 15.0 mph 23.0 mph N/A   Overcast
3:36 PM 33.8 °F 22.5 °F -14.8 °F 12% 29.14 in 10.0 mi West 19.6 mph 25.3 mph N/A   Overcast
3:56 PM 33.8 °F 22.2 °F -14.8 °F 12% 29.14 in 10.0 mi West 20.7 mph 27.6 mph N/A   Mostly Cloudy
4:16 PM 32.0 °F 21.2 °F -16.6 °F 12% 29.15 in 10.0 mi West 16.1 mph 23.0 mph N/A   Mostly Cloudy
4:36 PM 32.0 °F 21.6 °F -16.6 °F 12% 29.16 in 9.0 mi WNW 15.0 mph - N/A   Overcast
4:56 PM 30.2 °F 18.1 °F -16.6 °F 13% 29.16 in 9.0 mi NW 18.4 mph 26.5 mph N/A   Overcast
5:16 PM 30.2 °F 18.1 °F -16.6 °F 13% 29.17 in 3.0 mi WNW 18.4 mph 28.8 mph N/A   Mostly Cloudy
5:36 PM 30.2 °F 21.9 °F -16.6 °F 13% 29.17 in 5.0 mi NW 9.2 mph - N/A   Overcast
5:56 PM 30.2 °F 18.9 °F -16.6 °F 13% 29.17 in 10.0 mi NW 16.1 mph 19.6 mph N/A   Overcast
6:16 PM 30.2 °F 20.8 °F -16.6 °F 13% 29.19 in 1.8 mi WNW 11.5 mph - N/A   Overcast
6:36 PM 30.2 °F 18.9 °F -16.6 °F 13% 29.19 in 10.0 mi NW 16.1 mph 23.0 mph N/A   Overcast
6:56 PM 30.2 °F 17.8 °F -16.6 °F 13% 29.19 in 10.0 mi West 19.6 mph 26.5 mph N/A   Overcast
7:16 PM 32.0 °F 21.6 °F -16.6 °F 12% 29.20 in 10.0 mi WNW 15.0 mph 24.2 mph N/A   Overcast
7:36 PM 32.0 °F 21.6 °F -16.6 °F 12% 29.21 in 10.0 mi West 15.0 mph - N/A   Overcast
7:56 PM 30.2 °F 18.9 °F -16.6 °F 13% 29.22 in 4.0 mi West 16.1 mph 24.2 mph N/A   Mostly Cloudy
8:16 PM 30.2 °F 17.8 °F -16.6 °F 13% 29.22 in 10.0 mi West 19.6 mph - N/A   Mostly Cloudy
8:36 PM 32.0 °F 19.8 °F -16.6 °F 12% 29.22 in 10.0 mi West 20.7 mph - N/A   Mostly Cloudy
8:56 PM 32.0 °F 18.6 °F -16.6 °F 12% 29.23 in 10.0 mi West 25.3 mph 32.2 mph N/A   Mostly Cloudy
9:16 PM 30.2 °F 18.9 °F -16.6 °F 13% 29.24 in 3.0 mi West 16.1 mph - N/A   Mostly Cloudy
9:36 PM 30.2 °F 18.5 °F -16.6 °F 13% 29.24 in 10.0 mi West 17.3 mph - N/A   Overcast
9:56 PM 30.2 °F 19.3 °F -16.6 °F 13% 29.25 in 4.0 mi West 15.0 mph - N/A   Mostly Cloudy
10:16 PM 32.0 °F 18.9 °F -16.6 °F 12% 29.26 in 10.0 mi WNW 24.2 mph 29.9 mph N/A   Mostly Cloudy
10:36 PM 30.2 °F 18.9 °F -16.6 °F 13% 29.27 in 10.0 mi WNW 16.1 mph - N/A   Scattered Clouds
10:56 PM 30.2 °F 15.7 °F -16.6 °F 13% 29.28 in 8.0 mi West 27.6 mph 33.4 mph N/A   Scattered Clouds
11:16 PM 30.2 °F 19.3 °F -16.6 °F 13% 29.29 in 5.0 mi WNW 15.0 mph 21.9 mph N/A   Overcast
11:36 PM 30.2 °F 19.3 °F -16.6 °F 13% 29.29 in 10.0 mi WNW 15.0 mph - N/A   Mostly Cloudy
11:56 PM 30.2 °F 18.5 °F -16.6 °F 13% 29.30 in 10.0 mi West 17.3 mph - N/A   Mostly Cloudy